Change the Weather History Date:

Thursday, August 8, 2013

  Actual Average Record
Temperature  
Mean Temperature 65 °F 68 °F  
Max Temperature 85 °F 87 °F 95 °F (1960)
Min Temperature 45 °F 49 °F 33 °F (1976)
Degree Days  
Heating Degree Days 0 1  
Month to date heating degree days 1 2  
Since 1 June heating degree days 101 200  
Since 1 July heating degree days 6 25  
Cooling Degree Days 0 3  
Month to date cooling degree days 23 29  
Year to date cooling degree days 291 164  
Since 1 June cooling degree days 291 163  
Growing Degree Days 14 (Base 50)    
Moisture  
Dew Point 15 °F    
Average Humidity 19    
Maximum Humidity 31    
Minimum Humidity 6    
Precipitation  
Precipitation 0.00 in 0.03 in 0.44 in (1987)
Month to date precipitation 0.00 0.25  
Year to date precipitation 3.36 5.99  
Snow  
Snow 0.00 in 0.00 in 0.00 in (1893)
Month to date snowfall 0.0 0.0  
Since 1 June snowfall 0.0 0.1  
Since 1 July snowfall 0.0 0.0  
Snow Depth 0.00 in    
Sea Level Pressure  
Sea Level Pressure 29.81 in    
Wind  
Wind Speed 14 mph (South)    
Max Wind Speed 23 mph    
Max Gust Speed 31 mph    
Visibility 10 miles    
Events      
T = Trace of Precipitation, MM = Missing Value Source: NWS Daily Summary

Daily Weather History Graph

Daily Weather History Graph

Search for Another Location

Airport or City:

Trip Planner

Search our weather history database for the weather conditions in past years. The results will help you decide how hot, cold, wet, or windy it might be!

Date:

Astronomy

Aug. 08, 2013 Rise Set
Actual Time 5:46 AM PDT 7:43 PM PDT
Civil Twilight 5:16 AM PDT 8:12 PM PDT
Nautical Twilight 4:41 AM PDT 8:47 PM PDT
Astronomical Twilight 4:02 AM PDT 9:26 PM PDT
Moon 7:36 AM PDT (8/8) 8:25 PM PDT (8/8)
Length of Visible Light 14h 55m
Length of Day
13h 57m
Waxing Crescent, 3% of the Moon is Illuminated
Aug 8
Waxing Crescent
Aug 14
First Quarter
Aug 20
Full
Aug 28
Last Quarter
Sep 5
New

Hourly Weather History & Observations

Time (PDT) Temp. Dew Point Humidity Pressure Visibility Wind Dir Wind Speed Gust Speed Precip Events Conditions
12:53 AM 55.0 °F 21.0 °F 27% 29.83 in 10.0 mi South 11.5 mph - N/A   Clear
1:53 AM 54.0 °F 19.0 °F 25% 29.82 in 10.0 mi South 12.7 mph - N/A   Clear
2:53 AM 50.0 °F 19.0 °F 29% 29.85 in 10.0 mi South 11.5 mph - N/A   Clear
3:53 AM 48.0 °F 19.0 °F 32% 29.84 in 10.0 mi SSE 13.8 mph - N/A   Clear
4:53 AM 46.9 °F 18.0 °F 32% 29.84 in 10.0 mi South 15.0 mph - N/A   Clear
5:53 AM 50.0 °F 14.0 °F 24% 29.84 in 10.0 mi South 15.0 mph - N/A   Clear
6:53 AM 50.0 °F 19.0 °F 29% 29.86 in 10.0 mi South 10.4 mph - N/A   Clear
7:53 AM 66.0 °F 19.0 °F 17% 29.81 in 10.0 mi South 11.5 mph - N/A   Clear
8:53 AM 72.0 °F 18.0 °F 13% 29.80 in 10.0 mi SSE 17.3 mph - N/A   Clear
9:53 AM 75.9 °F 14.0 °F 10% 29.78 in 10.0 mi SSE 18.4 mph - N/A   Clear
10:53 AM 79.0 °F 17.1 °F 10% 29.80 in 10.0 mi SSE 18.4 mph 26.5 mph N/A   Clear
11:53 AM 81.0 °F 12.0 °F 7% 29.78 in 10.0 mi SSE 17.3 mph 26.5 mph N/A   Clear
12:53 PM 82.0 °F 16.0 °F 8% 29.79 in 10.0 mi SE 13.8 mph 24.2 mph N/A   Clear
1:53 PM 82.9 °F 10.9 °F 7% 29.78 in 10.0 mi SSW 12.7 mph 21.9 mph N/A   Clear
2:53 PM 84.0 °F 12.9 °F 7% 29.79 in 10.0 mi South 16.1 mph 24.2 mph N/A   Clear
3:53 PM 82.0 °F 12.0 °F 7% 29.79 in 10.0 mi South 19.6 mph 25.3 mph N/A   Clear
4:53 PM 82.0 °F 12.9 °F 7% 29.79 in 10.0 mi South 17.3 mph 23.0 mph N/A   Clear
5:53 PM 81.0 °F 14.0 °F 8% 29.78 in 10.0 mi SSW 11.5 mph 21.9 mph N/A   Clear
6:53 PM 78.1 °F 15.1 °F 9% 29.79 in 10.0 mi South 20.7 mph 25.3 mph N/A   Clear
7:53 PM 73.0 °F 12.0 °F 10% 29.76 in 10.0 mi South 13.8 mph - N/A   Clear
8:53 PM 66.0 °F 10.0 °F 11% 29.79 in 10.0 mi South 4.6 mph - N/A   Clear
9:53 PM 62.1 °F 12.0 °F 14% 29.81 in 10.0 mi South 6.9 mph - N/A   Clear
10:53 PM 55.9 °F 12.9 °F 18% 29.83 in 10.0 mi SW 6.9 mph - N/A   Clear
11:53 PM 57.0 °F 16.0 °F 20% 29.83 in 10.0 mi SSW 9.2 mph - N/A   Clear